This demonstration page uses our WeatherBlox Daily Observations layout. Learn more.

Left ArrowRight Arrow

39.51506, -84.39828

Hourly Observations for June 22, 2018

Temp ( °F °C ) Dew Point ( °F °C ) Humidity (%) Winds ( mph kmh ) Pressure ( in mb ) Visibility ( mi km ) Precip ( " mm )
12:15 am 00:15 Mostly Cloudy 71 21.6 70 21.1 97 97 Calm 29.77 1008 10 16 0.00 0.00
12:35 am 00:35 Partly Cloudy 70 21.2 69 20.8 98 98 Calm 29.74 1007 10 16 0.00 0.00
12:55 am 00:55 Partly Cloudy 70 20.9 69 20.6 98 98 Calm 29.74 1007 7 11 0.00 0.00
1:15 am 01:15 Mostly Cloudy with Mist and Fog 69 20.6 69 20.4 99 99 ENE 3 6 29.74 1007 5 8 0.00 0.00
1:35 am 01:35 Cloudy 70 20.9 69 20.7 99 99 Calm 29.74 1007 7 11 0.00 0.00
1:55 am 01:55 Mostly Cloudy 70 21.1 69 20.8 98 98 ENE 3 6 29.74 1007 10 16 0.00 0.00
2:15 am 02:15 Mostly Cloudy 70 21 69 20.7 98 98 NE 5 7 29.71 1006 10 16 0.00 0.00
2:35 am 02:35 Clear 70 20.9 69 20.5 98 98 NE 3 6 29.71 1006 10 16 0.00 0.00
2:55 am 02:55 Clear 69 20.7 69 20.4 98 98 Calm 29.71 1006 10 16 0.00 0.00
3:15 am 03:15 Partly Cloudy 69 20.3 68 20.1 99 99 Calm 29.71 1006 7 11 0.00 0.00
3:35 am 03:35 Cloudy 69 20.6 69 20.4 99 99 NE 3 6 29.71 1006 7 11 0.00 0.00
3:55 am 03:55 Mostly Cloudy 69 20.7 69 20.5 99 99 Calm 29.71 1006 10 16 0.00 0.00
4:15 am 04:15 Cloudy 70 21 69 20.6 98 98 Calm 29.71 1006 10 16 0.00 0.00
4:35 am 04:35 Cloudy 70 21 69 20.6 98 98 Calm 29.71 1006 10 16 0.00 0.00
4:55 am 04:55 Cloudy 70 21.1 69 20.7 98 98 NE 5 7 29.71 1006 10 16 0.00 0.00
5:15 am 05:15 Cloudy with Light Rain 70 21.2 69 20.8 98 98 ESE 3 6 29.71 1006 10 16 0.00 0.00
5:35 am 05:35 Cloudy with Mist and Fog 70 21.2 69 20.8 98 98 ENE 5 7 29.71 1006 7 11 0.00 0.00
5:55 am 05:55 Cloudy 70 21.2 69 20.8 98 98 E 7 11 29.71 1006 7 11 0.00 0.00
6:15 am 06:15 Cloudy with Mist and Fog 71 21.4 70 20.9 97 97 Calm 29.71 1006 5 8 0.00 0.00
6:35 am 06:35 Cloudy 71 21.5 70 20.9 96 96 Calm 29.71 1006 7 11 0.00 0.00
6:55 am 06:55 Cloudy 71 21.7 70 21 96 96 Calm 29.74 1007 7 11 0.00 0.00
7:15 am 07:15 Cloudy 71 21.7 70 21 96 96 SE 5 7 29.74 1007 7 11 0.00 0.00
7:35 am 07:35 Partly Cloudy 72 22 70 20.9 94 94 S 6 9 29.74 1007 10 16 0.00 0.00
7:55 am 07:55 Cloudy 71 21.9 69 20.5 92 92 SSE 3 6 29.74 1007 10 16 0.00 0.00
8:15 am 08:15 Mostly Cloudy 72 22.1 69 20.4 90 90 S 3 6 29.74 1007 10 16 0.00 0.00
8:35 am 08:35 Cloudy 72 22.2 69 20.7 91 91 SSE 3 6 29.74 1007 10 16 0.00 0.00
8:55 am 08:55 Cloudy 73 22.6 70 21.1 91 91 SSW 7 11 29.74 1007 10 16 0.00 0.00
9:15 am 09:15 Cloudy 72 22.4 70 21.1 92 92 SSW 5 7 29.74 1007 10 16 0.00 0.00
9:35 am 09:35 Mostly Cloudy 74 23.2 70 21 87 87 S 8 13 29.74 1007 10 16 0.00 0.00
9:55 am 09:55 Mostly Cloudy 75 23.9 70 21.3 85 85 SSW 8 13 29.74 1007 10 16 0.00 0.00
10:15 am 10:15 Partly Cloudy 74 23.3 69 20.7 85 85 SW 8 13 29.74 1007 10 16 0.00 0.00
10:35 am 10:35 Mostly Cloudy 76 24.2 69 20.8 81 81 SW 8 13 29.74 1007 10 16 0.00 0.00
10:55 am 10:55 Mostly Cloudy 76 24.6 70 21 80 80 SW 10 17 29.74 1007 10 16 0.00 0.00
11:15 am 11:15 Partly Cloudy 77 25.2 70 21 78 78 SW 9 15 29.74 1007 10 16 0.00 0.00
11:35 am 11:35 Mostly Cloudy 77 25 69 20.6 77 77 WSW 8 13 29.74 1007 10 16 0.00 0.00
11:55 am 11:55 Partly Cloudy 76 24.6 69 20.3 77 77 SW 9 15 29.74 1007 10 16 0.00 0.00
12:15 pm 12:15 Partly Cloudy 79 26.2 69 20.8 72 72 SSW 13 20 29.71 1006 10 16 0.00 0.00
12:35 pm 12:35 Partly Cloudy 80 26.4 69 20.7 71 71 SW 6 9 29.68 1005 10 16 0.00 0.00
12:55 pm 12:55 Mostly Cloudy 80 26.8 69 20.5 68 68 SSW 12 19 29.68 1005 10 16 0.00 0.00
1:15 pm 13:15 Partly Cloudy 81 27 69 20.3 67 67 SW 12 19 29.68 1005 10 16 0.00 0.00
1:35 pm 13:35 Sunny 82 27.6 67 19.4 61 61 SW 14 22 29.68 1005 10 16 0.00 0.00
1:55 pm 13:55 Sunny 80 26.4 65 18.6 62 62 SW 13 20 29.68 1005 10 16 0.00 0.00
2:15 pm 14:15 Sunny 79 26 65 18.6 64 64 SW 13 20 29.68 1005 10 16 0.00 0.00
2:35 pm 14:35 Mostly Cloudy 78 25.8 65 18.6 65 65 SW 12 19 29.68 1005 10 16 0.00 0.00
2:55 pm 14:55 Mostly Cloudy 77 25.1 66 19 69 69 SW 18 30 29.71 1006 10 16 0.00 0.00
3:15 pm 15:15 Sunny 75 24.1 65 18.5 71 71 SW 13 20 29.71 1006 10 16 0.00 0.00
3:35 pm 15:35 Sunny 76 24.7 65 18.1 67 67 SW 8 13 29.71 1006 10 16 0.00 0.00
3:55 pm 15:55 Partly Cloudy 79 26.1 65 18.6 63 63 SSW 7 11 29.68 1005 10 16 0.00 0.00
4:15 pm 16:15 Mostly Cloudy with Nearby Thunderstorms 78 25.7 65 18.5 65 65 SSE 8 13 29.68 1005 10 16 0.00 0.00
4:35 pm 16:35 Partly Cloudy with Nearby Thunderstorms 78 25.3 65 18.1 64 64 S 8 13 29.68 1005 10 16 0.00 0.00
4:55 pm 16:55 Partly Cloudy 78 25.3 65 18.5 66 66 S 8 13 29.65 1004 10 16 0.00 0.00
5:15 pm 17:15 Sunny 78 25.3 66 18.7 67 67 SSW 6 9 29.65 1004 10 16 0.00 0.00
5:35 pm 17:35 Mostly Cloudy with Light Rain 76 24.6 65 18.1 67 67 S 13 20 29.68 1005 10 16 0.00 0.00
5:55 pm 17:55 Mostly Cloudy with Light Rain 72 22.1 68 20.1 88 88 SW 8 13 29.68 1005 10 16 0.00 0.00
6:15 pm 18:15 Cloudy with Light Rain 71 21.6 68 20.2 92 92 SSW 12 19 29.68 1005 10 16 0.01 0.25
6:35 pm 18:35 Partly Cloudy with Light Rain 70 21.2 68 20.1 93 93 SW 5 7 29.68 1005 10 16 0.01 0.25
6:55 pm 18:55 Cloudy with Light Rain 70 21.3 68 20.1 93 93 Calm 29.65 1004 10 16 0.02 0.51
7:15 pm 19:15 Mostly Cloudy with Light Rain 71 21.7 68 20.2 91 91 Calm 29.68 1005 10 16 0.00 0.00
7:35 pm 19:35 Sunny 71 21.9 68 20.1 90 90 Calm 29.68 1005 10 16 0.00 0.00
7:55 pm 19:55 Partly Cloudy 72 22 69 20.3 90 90 SW 5 7 29.68 1005 10 16 0.00 0.00
8:15 pm 20:15 Partly Cloudy 71 21.8 68 20.1 90 90 SSW 3 6 29.68 1005 10 16 0.00 0.00
8:35 pm 20:35 Partly Cloudy 71 21.6 69 20.3 92 92 Calm 29.68 1005 10 16 0.00 0.00
8:55 pm 20:55 Partly Cloudy 71 21.5 68 20.2 92 92 S 3 6 29.68 1005 10 16 0.00 0.00
9:15 pm 21:15 Clear 70 21 67 19.5 91 91 S 6 9 29.68 1005 10 16 0.00 0.00
9:35 pm 21:35 Mostly Cloudy 70 21 67 19.4 91 91 S 6 9 29.68 1005 10 16 0.00 0.00
9:55 pm 21:55 Mostly Cloudy 70 21.1 67 19.6 91 91 S 6 9 29.71 1006 10 16 0.00 0.00
10:15 pm 22:15 Mostly Cloudy 70 21.1 67 19.6 91 91 S 7 11 29.71 1006 10 16 0.00 0.00
10:35 pm 22:35 Partly Cloudy 70 21 67 19.6 92 92 S 8 13 29.71 1006 10 16 0.00 0.00
10:55 pm 22:55 Partly Cloudy 69 20.7 67 19.4 92 92 S 7 11 29.68 1005 10 16 0.00 0.00
11:15 pm 23:15 Cloudy 70 20.9 68 19.8 93 93 S 3 6 29.68 1005 10 16 0.00 0.00
11:35 pm 23:35 Partly Cloudy 69 20.6 67 19.6 94 94 SSW 6 9 29.71 1006 10 16 0.00 0.00
11:55 pm 23:55 Cloudy 70 20.9 68 19.8 93 93 SSW 5 7 29.71 1006 10 16 0.00 0.00

Powered by AerisWeather